Location: Auttagershofen
(48.1940°N, 10.0237°E)
Time: 11:30:50
(UTC+00:00)

Cosmos 1805 Rocket - Pass Details

Date: 18 January 2026
Orbit: 598 x 623 km, 82.5° (Epoch: 15 February)

Event Time Altitude Azimuth Distance (km) Brightness Sun altitude
Rises 05:10:11 0° 207° (SSW) 2,892 6.8 -18.4°
Reaches altitude 10° 05:12:31 10° 214° (SW) 1,990 5.9 -18.0°
Maximum altitude 05:16:42 41° 285° (WNW) 911 3.9 -17.4°
Drops below altitude 10° 05:20:53 10° 356° (N) 1,995 6.0 -16.7°
Sets 05:23:13 0° 4° (N) 2,902 6.9 -16.3°
